[Iaude] MPEC S09: 2016 RH40 [a=1.32,e=0.27,i=15.1,H=24.3]

mpec at mpc.eps.harvard.edu mpec at mpc.eps.harvard.edu
Mon Sep 19 11:21:16 EDT 2016


M.P.E.C. 2016-S09                                Issued 2016 Sept. 19, 15:17 UT
 
     The Minor Planet Electronic Circulars contain information on unusual
         minor planets and routine data on comets.  They are published
    on behalf of Division F of the International Astronomical Union by the
          Minor Planet Center, Smithsonian Astrophysical Observatory,
                          Cambridge, MA 02138, U.S.A.

             Prepared using the Tamkin Foundation Computer Network

                              MPC at CFA.HARVARD.EDU
            URL http://www.minorplanetcenter.net/    ISSN 1523-6714


                                   2016 RH40
 
Observations:
     K16R40H* C2016 09 11.23876 22 13 38.64 +20 40 06.1          20.8 VqES009G96
     K16R40H  C2016 09 11.24258 22 13 38.85 +20 39 45.8          20.6 VqES009G96
     K16R40H  C2016 09 11.24640 22 13 39.06 +20 39 25.7          20.9 VqES009G96
     K16R40H  C2016 09 11.42524 22 13 50.09 +20 23 03.8          20.3 VqES009G96
     K16R40H  C2016 09 11.42565 22 13 50.14 +20 23 00.3          21.4 VqES009G96
     K16R40H  C2016 09 11.42607 22 13 50.16 +20 22 58.4          21.3 VqES009G96
     K16R40H  C2016 09 11.42648 22 13 50.22 +20 22 56.2          21.1 VqES009G96
     K16R40H KC2016 09 12.06703922 14 59.78 +19 22 13.9          20.3 VuES009H21
     K16R40H KC2016 09 12.07459722 15 00.39 +19 21 30.3          20.5 VuES009H21
     K16R40H KC2016 09 12.08034422 15 00.86 +19 20 57.2          20.3 VuES009H21
     K16R40H  C2016 09 12.17852 22 15 09.90 +19 11 28.9          20.8 VqES009G96
     K16R40H  C2016 09 12.18726 22 15 10.51 +19 10 37.1          20.0 VqES009G96
     K16R40H  C2016 09 12.18772 22 15 10.52 +19 10 34.6          19.9 VqES009G96
     K16R40H  C2016 09 12.18985 22 15 10.72 +19 10 22.0          19.6 VqES009G96
     K16R40H  C2016 09 12.19184 22 15 10.85 +19 10 10.2          20.3 VqES009G96
     K16R40H  C2016 09 12.19381 22 15 10.89 +19 09 58.5          20.8 VqES009G96
     K16R40H  C2016 09 12.19524 22 15 11.09 +19 09 50.0          20.9 VqES009G96
     K16R40H  C2016 09 12.20508 22 15 11.70 +19 08 52.0          20.4 VqES009G96
     K16R40H  C2016 09 12.28280 22 15 16.82 +19 01 06.2          20.5 VqES009G96
     K16R40H  C2016 09 12.28505 22 15 16.95 +19 00 52.5          20.3 VqES009G96
     K16R40H  C2016 09 12.28888 22 15 17.22 +19 00 29.6          20.3 VqES009G96
     K16R40H  C2016 09 12.31522 22 15 19.00 +18 57 49.1          20.6 VqES009G96
     K16R40H  C2016 09 12.31896 22 15 19.27 +18 57 25.8          20.7 VqES009G96
     K16R40H  C2016 09 12.32220 22 15 19.43 +18 57 05.9          20.1 VqES009G96
     K16R40H  C2016 09 12.32544 22 15 19.68 +18 56 46.6          20.2 VqES009G96
     K16R40H KC2016 09 14.16657122 18 51.88 +15 29 09.5          20.3 VuES009H21
     K16R40H KC2016 09 14.17052222 18 52.25 +15 28 39.8          20.3 VuES009H21
     K16R40H KC2016 09 14.17689122 18 52.82 +15 27 52.0          20.5 VuES009H21
     K16R40H ^C2016 09 14.23623 22 19 00.62 +15 20 37.2          19.3 RoES009695
     K16R40H ^C2016 09 14.24083 22 19 01.02 +15 20 02.5          19.2 RoES009695
     K16R40H ^C2016 09 14.24543 22 19 01.44 +15 19 27.3                oES009695
     K16R40H KC2016 09 14.89361 22 20 28.15 +13 53 44.5                qES009J95
     K16R40H KC2016 09 14.90888 22 20 29.82 +13 51 40.5                qES009J95
     K16R40H KC2016 09 14.92375 22 20 31.34 +13 49 38.4          19.9 RqES009J95
     K16R40H  C2016 09 19.17339 22 33 12.30 +01 12 52.2          18.9 RoES009926
     K16R40H  C2016 09 19.17539 22 33 12.67 +01 12 25.1          19.0 RoES009926
     K16R40H  C2016 09 19.17740 22 33 13.05 +01 11 58.3          18.9 RoES009926
     K16R40H "C2016 09 19.30038922 33 34.61 +00 43 50.7          19.3 RtES009705
     K16R40H "C2016 09 19.30140322 33 34.77 +00 43 38.3          19.3 RtES009705
     K16R40H "C2016 09 19.30242222 33 34.94 +00 43 24.9          19.2 RtES009705
 
Observer details:
695 Kitt Peak.  Observer R. S. McMillan.  2.3-m f/9 reflector + CCD.
705 Apache Point.  Observers K. Nault, M. Hammergren, M. Brucker.  Measurer
    K. Nault.  3.5-m f/10 reflector + CCD.
926 Tenagra II Observatory.  Observers M. Schwartz, P. R. Holvorcem.  Measurer
    M. Schwartz.  0.81-m f/7 Ritchey-Chretien + CCD.
G96 Mt. Lemmon Survey.  Observers A. R. Gibbs, R. A. Kowalski.  Measurers
    E. J. Christensen, D. C. Fuls, A. R. Gibbs, A. D. Grauer, J. A. Johnson,
    R. A. Kowalski, S. M. Larson, G. J. Leonard, R. G. Matheny, R. L. Seaman,
    F. C. Shelly.  1.5-m reflector + 10K CCD.
H21 Astronomical Research Observatory, Westfield.  Observer R. Holmes.
    Measurers S. Foglia, L. Buzzi, T. Linder, R. Holmes.  0.61-m f/4.5
    astrograph + CCD, 0.81-m f/4.0 astrograph + CCD.
J95 Great Shefford.  Observer P. Birtwhistle.  0.40-m f/6.0 Schmidt-Cassegrain
    + CCD.
 
Orbital elements:
2016 RH40                                                Earth MOID = 0.0433 AU
Epoch 2016 July 31.0 TT = JDT 2457600.5                 MPC
M 294.15080              (2000.0)            P               Q
n   0.65191535     Peri.  233.40650     +0.62827852     -0.77791074
a   1.3172713      Node   177.58388     +0.77075534     +0.62045166
e   0.2664515      Incl.   15.12414     +0.10584094     +0.09947171
P   1.51           H   24.3           G   0.15           U   7
Residuals in seconds of arc
160911 G96  0.2+  0.1-    160912 G96  0.3+  0.1-    160914 695  0.0   0.4+
160911 G96  0.1+  0.0     160912 G96  1.0-  0.1-    160914 695  0.0   0.4+
160911 G96  0.1+  0.3+    160912 G96  0.4+  0.2-    160914 695  0.2+  0.0
160911 G96  0.1-  0.5+    160912 G96  0.3-  0.1+    160914 J95  0.2+  0.4-
160911 G96  0.2+  0.7-    160912 G96  0.1+  0.0     160914 J95  0.4+  0.2+
160911 G96  0.0   0.2-    160912 G96  0.2-  0.0     160914 J95  0.9-  0.1-
160911 G96  0.4+  0.1-    160912 G96  0.1+  0.3+    160919 926  0.2-  0.3-
160912 H21  0.4-  0.1-    160912 G96  0.3+  0.3+    160919 926  0.1-  0.2-
160912 H21  0.1+  0.0     160912 G96  0.5+  0.1-    160919 926  0.1+  0.3+
160912 H21  0.6+  0.2+    160912 G96  0.4-  0.2-    160919 705  0.6+  1.1-
160912 G96  0.3-  0.1+    160912 G96  0.0   0.4+    160919 705  0.2+  0.5+
160912 G96  0.1-  0.2-    160914 H21  0.1+  0.3+    160919 705  0.1-  1.1+
160912 G96  0.4-  0.0     160914 H21  0.2+  0.2+
160912 G96  0.4+  0.0     160914 H21  0.1+  0.2+

Ephemeris:
2016 RH40                a,e,i = 1.32, 0.27, 15                  q = 0.9663
Date    TT    R. A. (2000) Decl.     Delta      r     Elong.  Phase     V
2016 08 20    22 01 29.6 +32 35 29   0.2222  1.1793   134.9    37.4    22.9
...
2016 09 04    22 06 16.5 +28 04 47   0.1348  1.1191   143.0    32.8    21.6
...
2016 09 12    22 14 49.4 +19 29 31   0.09304 1.0889   151.3    26.4    20.5
...
2016 09 18    22 28 59.3 +05 22 28   0.06638 1.0675   160.2    18.6    19.5
2016 09 19    22 32 29.2 +01 53 05   0.06266 1.0640   161.3    17.7    19.3
2016 09 20    22 36 26.6 -02 01 45   0.05925 1.0606   161.6    17.4    19.2
...
2016 09 26    23 15 19.7 -34 08 05   0.04815 1.0411   142.3    36.1    19.3
...
2016 10 04    01 55 21.1 -70 24 27   0.06345 1.0177   104.2    72.3    20.9
...
2016 10 19    07 31 52.2 -68 03 49   0.1267  0.9844    81.1    91.6    23.0

A. U. Tomatic                (C) Copyright 2016 MPC           M.P.E.C. 2016-S09




More information about the Iaude mailing list